EHI
6 4 4 4 2 0 0 0 0 0 0 1 4 4 2 1 1 2 6 23 48 52 40 38 40 33 22 15 10 6 3 1 1 0 0 0 0 0 0 0 0 0 0 0 0 0 0 0 0
2 2 2 2 1 0 0 0 1 2 1 1 4 6 4 4 6 7 12 31 53 54 43 42 44 37 25 16 10 6 3 1 0 0 0 0 0 0 0 0 0 0 0 0 0 0 0 0 0
0 0 1 1 0 0 0 1 5 6 3 2 4 6 5 7 13 16 24 45 58 55 47 49 53 45 29 17 11 7 4 1 0 0 0 0 0 0 0 0 0 0 0 0 0 0 0 0 0
0 0 1 1 0 0 0 2 6 7 5 4 6 6 5 12 24 32 41 54 62 57 52 57 61 52 34 19 11 8 5 3 1 0 0 0 0 0 0 0 0 0 0 0 0 0 0 0 0
0 0 0 0 0 0 0 2 6 8 8 9 10 8 10 25 43 51 51 56 63 64 58 60 64 55 37 21 12 8 5 2 1 0 0 0 0 0 0 0 0 0 0 0 0 0 0 0 0
0 0 0 0 0 0 0 2 7 11 13 14 14 10 17 42 59 57 51 53 62 66 60 57 57 50 36 22 12 7 4 1 0 0 0 0 0 0 0 0 0 0 0 0 0 0 0 0 0
0 0 0 0 0 0 1 3 7 12 15 18 18 15 25 49 63 58 52 53 59 62 59 52 45 40 32 21 11 6 3 1 0 0 0 0 0 0 0 0 0 0 0 0 0 0 0 0 0
0 0 0 0 0 0 1 2 6 10 15 19 21 21 31 51 65 65 61 57 57 58 56 49 40 33 28 19 10 5 3 1 0 0 0 0 0 0 0 0 0 0 0 0 0 0 0 0 0
0 0 0 0 0 0 0 2 4 10 16 20 24 29 40 57 71 74 69 64 60 57 52 46 39 30 24 16 8 3 1 0 0 0 0 0 0 0 0 0 0 0 0 0 0 0 0 0 0
0 0 0 0 0 0 1 3 6 11 18 25 33 42 52 65 76 79 75 70 64 59 50 42 33 24 18 13 7 2 0 0 0 0 0 0 0 0 0 0 0 0 0 0 0 0 0 0 0
0 0 0 0 0 0 3 5 8 12 17 29 46 55 59 67 75 79 78 73 67 60 49 37 25 17 12 10 7 2 0 0 0 0 0 0 0 0 0 0 0 0 0 0 0 0 0 0 0
0 0 0 0 0 0 3 6 10 12 18 34 52 58 57 62 69 75 78 74 67 61 49 36 23 13 8 7 5 2 0 0 0 0 0 0 0 0 0 0 0 0 0 0 0 0 0 0 0
0 0 1 1 0 1 3 7 12 16 26 44 56 55 51 54 61 69 75 73 67 61 52 39 27 15 8 5 3 2 1 0 0 0 0 0 0 0 0 0 0 0 0 0 0 0 0 0 0
0 0 0 1 1 2 4 8 13 23 39 55 60 54 48 49 56 64 71 72 66 61 55 45 32 20 12 7 4 2 1 0 0 0 0 0 0 0 0 0 0 0 0 0 0 0 0 0 0
0 0 0 0 0 1 3 6 14 30 49 61 62 58 52 50 54 59 65 69 67 61 57 50 39 28 19 11 6 2 1 0 0 0 0 0 0 0 0 0 0 0 0 0 0 0 0 0 0
0 0 0 0 0 0 1 5 14 33 53 61 63 64 60 54 53 55 61 67 67 62 58 52 45 37 27 18 11 6 3 2 1 2 1 0 0 0 0 0 0 0 0 0 0 0 0 0 0
0 0 0 0 0 0 1 4 13 32 51 60 65 69 67 59 55 56 61 66 64 60 56 52 48 43 35 25 17 12 8 5 5 6 4 1 0 0 0 0 0 0 0 0 0 0 0 0 0
0 0 0 0 0 0 1 4 12 28 47 60 67 71 68 62 58 58 62 64 61 57 54 52 49 43 36 27 21 16 12 9 9 8 6 3 0 0 0 0 0 0 0 0 0 0 0 0 0
0 0 0 0 0 0 1 4 11 24 42 57 66 70 68 64 61 61 63 63 61 58 55 51 45 39 32 25 21 16 11 10 11 9 7 4 2 1 1 1 0 0 0 0 0 0 0 0 0
0 0 0 0 0 0 1 5 11 20 35 50 60 66 68 67 64 64 65 64 62 60 55 47 39 33 28 24 19 14 9 9 10 8 6 6 4 3 2 1 1 0 0 0 0 0 0 0 0
0 0 0 0 0 0 1 4 10 18 27 40 50 59 66 68 68 66 65 63 61 57 50 42 35 29 26 22 17 12 7 6 8 8 7 6 5 4 3 1 1 0 0 0 0 0 0 0 0
0 0 0 0 0 0 1 2 7 16 26 35 45 54 62 67 66 62 59 58 56 50 42 36 31 27 24 21 18 12 6 4 6 7 7 5 3 2 2 1 0 0 0 0 0 0 0 0 0
0 0 0 0 0 0 0 0 4 14 26 35 44 52 58 61 58 51 47 47 47 44 38 33 28 24 22 20 18 12 6 4 5 5 4 3 1 0 1 1 0 0 0 0 0 0 0 0 0
0 0 0 0 0 0 0 0 2 8 19 31 41 48 53 54 50 42 35 36 39 38 34 29 25 21 18 17 16 12 7 4 4 3 3 3 2 1 0 0 0 0 0 0 0 0 0 0 0
0 0 0 0 0 0 0 0 0 3 12 26 40 47 50 50 45 36 31 30 32 32 29 25 21 19 16 14 14 12 9 5 3 3 3 3 3 2 1 1 1 1 0 0 0 0 0 0 0
0 0 0 0 0 0 0 0 0 4 13 26 40 49 50 47 38 30 28 28 27 26 24 19 17 17 16 14 13 12 10 7 4 3 3 3 3 3 2 1 2 1 0 0 0 0 0 0 0
0 0 0 0 0 0 0 0 1 8 19 31 42 48 47 41 32 26 25 24 21 20 19 17 15 16 17 16 14 12 10 9 5 3 3 3 3 3 2 1 1 1 0 0 0 0 0 0 0
0 0 0 0 0 0 0 0 1 9 21 33 41 46 45 41 34 28 24 21 18 16 15 14 14 14 15 15 14 12 11 9 6 3 2 2 1 1 1 1 0 1 1 0 0 0 0 0 0
0 0 0 0 0 0 0 0 1 6 15 26 37 42 44 44 39 31 24 19 18 15 12 10 10 11 12 13 14 13 11 8 5 3 2 1 0 0 0 0 0 1 1 0 0 0 0 0 0
0 0 0 0 0 0 0 0 1 4 11 22 34 40 42 44 40 31 24 19 17 15 11 7 7 8 10 11 13 13 11 8 6 4 4 2 1 0 0 0 0 1 1 0 0 0 0 0 0
Wind_Speed
5 3 2 1 4 5 2 3 6 8 7 6 8 9 7 5 4 5 5 15 18 15 12 15 17 18 18 17 17 16 16 16 15 15 15 15 15 14 14 14 14 13 13 13 13 13 13 13 13
3 2 1 3 5 3 2 3 7 9 9 9 9 9 8 7 8 11 8 15 18 15 12 13 18 18 18 17 17 16 16 15 15 14 14 14 14 14 14 13 13 13 13 13 13 13 13 12 13
3 1 3 4 2 1 2 2 9 9 9 8 6 6 6 6 10 8 11 18 16 13 11 15 20 19 19 18 17 16 16 15 14 14 14 14 14 13 13 13 13 13 13 13 13 12 12 12 12
1 3 4 4 3 5 4 3 7 8 6 6 7 6 4 4 7 13 19 18 16 12 10 14 20 19 19 18 17 16 16 15 14 14 13 13 13 13 13 13 13 13 12 12 12 12 12 11 11
3 4 5 3 4 3 2 5 8 8 5 6 8 6 4 4 16 20 19 18 17 13 10 13 19 19 18 18 17 16 16 15 14 14 13 13 13 13 13 13 13 12 12 12 12 11 11 10 10
4 4 4 4 5 3 1 4 8 10 9 8 9 6 3 9 18 17 16 16 16 15 11 12 19 19 18 18 17 16 16 15 14 14 13 13 13 13 13 12 12 12 12 11 11 10 10 9 8
3 3 1 3 4 2 2 4 9 10 9 6 8 7 5 9 15 16 15 15 14 14 12 9 11 14 17 17 17 16 15 15 14 13 13 13 13 12 12 12 12 12 11 11 10 10 9 8 7
4 4 1 2 3 3 1 2 7 11 7 6 6 9 8 11 14 14 13 13 13 11 10 9 8 8 8 10 16 16 15 14 14 14 13 13 12 12 12 10 10 11 11 10 9 8 7 6 6
4 3 3 4 3 3 3 6 4 6 8 4 3 6 13 17 18 16 14 12 11 11 9 9 9 8 7 7 12 13 14 13 12 11 13 10 5 5 6 9 10 10 10 9 8 8 6 5 4
4 4 8 6 4 2 3 7 7 6 6 5 7 10 15 16 18 18 17 16 14 13 11 9 9 9 8 8 6 4 5 6 5 4 6 4 4 3 5 8 10 10 9 8 7 6 5 4 2
4 7 7 6 4 2 3 4 5 9 5 7 13 16 16 15 15 16 16 16 15 14 13 11 10 10 8 5 5 3 3 3 4 5 5 4 3 3 3 2 4 4 5 3 3 3 1 2 2
3 7 6 4 3 1 2 3 4 5 7 11 16 18 16 15 14 16 15 14 13 14 14 12 11 10 8 7 5 4 3 3 3 4 5 4 3 3 3 2 2 2 2 2 1 1 1 1 2
5 6 6 5 3 1 3 3 5 4 10 14 16 16 15 14 11 11 13 13 13 13 13 13 11 10 8 7 6 6 5 5 4 4 5 5 4 4 4 3 3 3 2 2 2 2 2 1 2
5 7 9 7 4 1 3 2 5 5 13 16 15 14 13 13 12 10 12 11 12 12 12 11 11 11 10 7 6 6 6 5 4 4 6 6 5 5 4 4 3 3 3 3 3 3 3 2 2
5 7 10 6 4 2 4 2 3 9 14 15 14 12 12 10 10 11 13 14 14 13 12 12 12 11 10 8 7 5 5 5 4 4 5 6 6 6 5 4 4 3 3 4 2 2 2 2 2
6 5 5 8 3 3 6 3 4 9 14 14 13 13 11 9 9 9 11 11 12 12 12 12 12 11 9 8 6 4 4 5 4 4 5 6 6 6 5 4 4 3 3 3 3 2 2 2 2
4 3 6 9 4 2 4 4 5 9 13 13 12 12 10 9 7 8 10 11 12 12 12 10 9 10 8 7 5 5 4 4 4 4 4 5 6 6 5 4 3 4 3 3 3 2 2 2 2
5 4 5 7 5 1 3 4 5 8 13 13 12 11 10 11 10 9 9 10 10 10 10 10 9 8 7 5 4 3 3 3 3 4 4 5 5 6 5 4 4 4 3 3 2 3 2 2 2
6 7 8 9 5 1 2 3 4 6 9 10 10 10 9 10 8 8 8 9 9 8 9 9 9 8 6 4 4 4 3 3 3 3 5 6 6 6 5 4 4 4 4 4 4 3 2 1 2
7 6 7 7 5 2 1 0 2 5 9 13 14 13 11 9 8 8 8 9 9 9 8 8 8 8 8 5 4 3 4 3 3 3 4 5 6 6 6 5 4 4 4 4 4 3 2 1 2
7 5 5 5 6 6 4 5 3 2 2 7 10 11 12 13 13 11 10 8 8 9 9 9 9 8 7 6 4 3 3 2 2 2 3 5 6 6 5 6 4 4 4 4 4 4 4 2 1
7 8 4 2 3 4 2 1 6 2 1 5 7 8 10 11 10 9 9 8 8 8 7 7 8 8 7 7 6 7 6 5 5 4 4 4 5 6 6 6 5 5 4 4 4 4 3 4 2
8 7 2 1 2 3 3 2 6 1 2 5 9 10 10 11 11 10 9 8 7 7 7 7 7 7 7 7 8 8 5 4 3 4 5 4 4 5 6 6 5 5 4 4 4 4 4 3 3
4 3 7 7 6 2 4 2 6 5 8 9 9 10 9 10 10 8 7 7 6 6 6 7 7 6 6 7 8 8 7 6 6 5 5 4 3 3 5 5 5 5 4 4 4 4 5 3 3
2 6 5 6 5 5 4 2 8 8 7 10 11 10 10 10 10 10 9 8 7 7 7 6 7 6 6 7 7 7 7 7 7 6 6 5 4 3 5 5 5 4 4 5 4 4 4 4 4
4 10 8 5 4 5 4 2 6 4 3 6 8 9 9 9 9 9 10 9 8 8 7 7 7 6 6 6 6 6 6 5 4 5 5 5 4 5 5 5 5 5 5 5 4 3 3 3 4
5 5 9 8 2 1 4 4 5 2 6 8 9 10 9 9 8 8 8 8 8 8 7 7 7 5 6 6 6 5 6 6 5 5 4 4 4 4 5 6 6 5 5 5 5 3 4 4 3
9 8 7 6 3 2 4 3 5 4 6 7 9 10 9 8 7 7 7 7 7 6 5 5 6 6 5 6 5 5 5 5 5 4 5 5 5 5 5 5 6 5 5 5 5 3 3 4 3
4 5 6 6 6 6 3 7 7 8 8 9 9 10 10 10 9 8 7 6 7 6 6 5 5 4 4 5 5 5 4 4 4 4 4 4 4 4 5 5 5 5 5 5 5 4 4 4 3
7 8 9 6 5 6 5 8 6 7 8 8 8 9 10 10 9 8 7 6 6 6 6 6 5 5 5 5 5 5 5 4 4 3 3 3 3 4 4 5 5 6 6 5 6 5 4 4 4
Wind_Direction
258 237 181 78 44 36 48 94 97 77 62 70 84 93 97 91 129 141 132 135 133 138 141 140 137 135 131 127 124 121 118 116 114 112 111 110 110 110 111 113 116 118 119 120 120 120 119 118 117
264 247 112 51 61 32 351 95 89 95 109 104 86 87 81 70 91 110 122 139 136 138 138 140 138 136 133 130 128 126 123 119 117 115 115 114 113 112 112 113 116 117 119 121 122 123 122 121 121
265 308 71 58 62 185 252 97 111 107 109 101 92 72 82 109 117 125 141 139 133 134 136 142 140 138 135 133 131 129 127 124 122 120 118 117 116 116 114 115 117 118 120 122 123 123 123 123 122
12 37 46 56 294 239 193 185 130 115 92 85 96 72 62 118 130 134 138 138 131 131 135 142 140 139 138 137 135 133 131 128 126 123 121 120 120 119 118 119 119 120 122 124 124 125 125 125 123
72 68 42 349 292 269 204 178 133 117 112 99 94 88 48 52 117 131 139 138 135 135 137 141 141 140 140 140 139 137 135 132 130 127 125 123 122 121 120 120 121 122 124 125 125 127 127 125 123
47 57 50 316 298 293 232 151 116 107 113 109 104 101 74 123 126 136 138 138 138 139 139 141 143 143 143 143 141 140 139 137 135 133 130 128 126 125 123 123 124 124 126 128 128 129 129 127 122
117 98 194 262 291 301 172 139 123 124 129 139 130 106 113 140 139 140 137 136 137 140 139 140 144 145 146 145 145 145 143 142 140 137 135 133 132 130 128 128 127 128 130 132 135 134 132 127 120
143 108 273 272 279 279 195 109 123 124 129 136 131 133 155 161 141 134 130 131 134 139 141 140 139 141 144 147 149 149 148 146 144 143 141 139 137 135 134 132 133 134 135 136 138 138 135 128 119
115 87 255 235 228 251 142 110 97 99 113 117 123 136 149 145 139 134 131 132 139 144 145 145 143 143 142 146 155 153 151 152 149 148 148 141 127 128 134 142 142 142 142 141 141 141 139 127 108
124 167 233 224 206 200 146 133 139 122 105 91 91 111 133 140 145 147 149 151 154 156 157 156 154 150 152 156 144 143 147 146 143 145 143 135 138 151 150 156 150 150 147 146 148 148 142 112 84
188 213 248 262 247 188 123 134 134 131 135 155 143 142 146 148 151 155 157 159 162 161 163 164 164 160 161 148 147 146 141 145 149 155 154 152 151 155 143 145 148 147 146 137 147 143 126 118 108
266 267 262 263 284 53 111 131 112 142 165 157 146 147 152 154 159 162 161 163 163 165 168 168 169 166 162 153 158 159 157 162 167 172 164 154 150 151 154 153 154 151 145 154 157 148 151 127 130
299 294 297 292 324 342 104 108 123 125 131 138 141 146 154 158 159 159 159 163 164 167 169 170 167 167 161 157 168 168 169 174 175 171 170 162 156 161 164 167 172 176 168 167 170 178 195 196 166
293 311 316 312 318 314 120 122 118 149 137 139 147 156 162 162 155 152 158 162 166 168 167 164 164 165 162 167 172 170 172 173 172 170 173 167 161 163 163 166 176 186 179 171 174 186 184 182 160
324 329 322 303 294 226 109 43 168 158 141 147 155 163 164 160 157 163 169 169 170 169 164 163 163 161 164 169 174 169 168 166 171 174 171 170 166 163 161 159 174 186 172 163 161 172 153 156 155
345 346 313 291 284 241 121 203 217 160 148 154 161 164 164 161 167 166 168 165 166 161 160 167 166 161 164 163 159 151 157 160 171 174 172 172 168 163 158 162 176 176 160 152 157 156 146 154 158
346 311 288 298 284 217 128 191 192 168 153 157 164 164 164 158 163 167 168 160 162 161 161 165 160 162 161 156 148 143 150 159 169 170 168 169 166 163 158 166 174 163 153 159 171 149 150 158 172
264 286 300 297 292 121 146 185 185 167 155 160 161 158 160 162 173 172 161 155 158 158 158 158 156 159 152 146 135 131 136 157 166 170 169 163 166 163 157 163 167 153 147 155 155 145 144 151 164
256 282 290 285 291 77 147 171 185 163 151 151 153 159 163 167 170 161 153 153 150 153 156 158 156 160 154 153 156 155 161 164 166 181 176 169 170 165 159 163 163 157 159 171 163 141 140 142 131
264 279 290 300 320 25 85 125 196 176 167 164 163 165 165 160 161 160 158 158 161 164 164 161 163 165 168 168 164 161 154 170 172 181 180 179 175 171 169 160 165 166 158 158 157 144 137 157 146
276 258 267 290 337 12 58 3 342 324 130 161 160 160 162 166 167 167 165 167 166 171 174 171 169 173 176 167 148 136 121 118 144 174 181 186 180 179 171 166 163 165 162 168 172 161 150 162 184
267 260 258 318 22 317 60 316 293 286 146 155 160 162 170 170 164 165 168 173 176 179 174 167 168 173 177 171 167 164 170 177 183 178 181 182 182 182 173 171 168 167 166 171 180 169 156 148 170
235 246 269 3 69 360 0 116 280 312 185 187 179 174 175 170 169 172 176 176 172 170 169 167 168 175 180 179 177 173 179 181 165 162 173 181 190 191 177 173 168 165 168 175 174 162 161 158 165
239 24 22 39 62 349 276 162 264 228 204 192 182 176 171 168 167 168 167 164 167 165 167 169 171 180 181 179 176 176 179 175 167 173 179 184 191 194 184 174 172 170 170 174 177 171 167 166 158
81 81 28 359 9 260 278 191 247 251 207 182 177 173 166 162 164 166 166 173 172 170 171 173 175 181 180 179 180 180 179 178 182 183 184 183 188 194 197 183 174 176 182 181 173 166 172 169 163
187 138 155 192 224 278 322 258 265 268 150 139 151 149 156 162 167 170 173 174 173 172 172 176 179 182 182 179 182 177 174 176 186 187 183 187 194 198 193 186 182 181 182 183 174 168 176 169 173
176 177 169 144 185 293 288 288 313 34 104 127 140 143 162 164 166 171 169 172 167 166 171 173 175 179 181 180 173 171 174 180 188 187 185 191 196 198 189 186 185 188 183 176 165 166 176 165 171
171 159 102 116 154 246 284 259 227 208 161 150 148 163 169 155 158 168 170 169 162 161 163 164 164 173 172 167 172 173 177 181 180 180 189 192 197 193 179 183 186 187 180 168 155 153 160 153 162
165 146 126 132 154 156 231 267 230 198 184 167 169 171 163 158 161 166 170 162 153 147 149 157 158 154 156 165 168 163 165 166 168 178 187 186 188 181 177 177 178 176 171 164 151 152 151 152 151
181 178 149 155 211 166 171 263 268 189 177 161 161 162 161 160 163 160 154 150 147 153 156 161 164 161 167 167 163 162 162 164 167 177 184 179 177 177 173 170 172 175 167 160 152 154 153 148 148